User: anonymous   Login
Location: Emblem
(62.4273°N, 6.4710°E)
Time: 16:01:24
(UTC+01:00)
Language:

NUDT-PHONESAT - Orbit

View from above orbital plane
View from above orbital plane
View from above satellite
View from above satellite

Ground track
Ground track

The orbit data is extracted from the following two-line orbital elements,

1 40900U 15049B   23080.22510355  .00886152  33650-3  26417-2 0  9990
2 40900  97.3566 109.4421 0003061 191.5874 183.9585 15.92459073417441
Epoch (UTC): 21 March 2023 05:24:08
Eccentricity: 0.0003061
inclination: 97.3566°
perigee height: 293 km
apogee height: 297 km
right ascension of ascending node: 109.4421°
argument of perigee: 191.5874°
revolutions per day: 15.92459073
mean anomaly at epoch: 183.9585°
orbit number at epoch: 41744

The dashed part of the orbit path shows where the satellite is in the earth's shadow,  

DLR